TimeEDT,TemperatureF,Dew PointF,Humidity,Sea Level PressureIn,VisibilityMPH,Wind Direction,Wind SpeedMPH,Gust SpeedMPH,PrecipitationIn,Events,Conditions,WindDirDegrees,DateUTC
12:59 AM,72.0,69.1,91,29.96,7.0,Calm,Calm,-,N/A,,Partly Cloudy,0,2013-08-13 04:59:00
1:54 AM,72.0,69.1,91,29.95,8.0,WSW,5.8,-,N/A,,Overcast,250,2013-08-13 05:54:00
2:54 AM,71.1,68.0,90,29.91,10.0,WSW,5.8,-,N/A,,Mostly Cloudy,250,2013-08-13 06:54:00
3:54 AM,71.1,66.9,87,29.90,10.0,West,4.6,-,N/A,,Overcast,280,2013-08-13 07:54:00
4:54 AM,71.1,66.9,87,29.88,10.0,West,3.5,-,0.00,,Partly Cloudy,280,2013-08-13 08:54:00
5:54 AM,71.1,66.0,84,29.87,10.0,West,4.6,-,N/A,,Mostly Cloudy,270,2013-08-13 09:54:00
6:54 AM,72.0,66.0,81,29.87,10.0,WNW,6.9,-,N/A,,Mostly Cloudy,290,2013-08-13 10:54:00
7:54 AM,73.0,66.9,81,29.88,10.0,West,6.9,-,N/A,,Mostly Cloudy,270,2013-08-13 11:54:00
8:54 AM,73.0,66.9,81,29.90,10.0,WSW,3.5,-,0.00,,Mostly Cloudy,250,2013-08-13 12:54:00
9:54 AM,73.0,68.0,84,29.89,10.0,West,9.2,-,0.00,,Overcast,260,2013-08-13 13:54:00
10:54 AM,73.0,69.1,87,29.89,10.0,WSW,8.1,-,0.01,Rain,Light Rain,250,2013-08-13 14:54:00
11:54 AM,80.1,71.1,74,29.88,10.0,WSW,6.9,-,0.00,,Scattered Clouds,240,2013-08-13 15:54:00
12:54 PM,79.0,69.1,72,29.87,10.0,SSW,4.6,-,N/A,,Partly Cloudy,200,2013-08-13 16:54:00
1:54 PM,82.0,69.1,65,29.85,10.0,SW,10.4,-,N/A,,Scattered Clouds,230,2013-08-13 17:54:00
2:26 PM,71.6,68.0,88,29.90,7.0,NNW,9.2,-,0.02,Rain,Light Rain,340,2013-08-13 18:26:00
2:54 PM,73.0,66.0,79,29.86,10.0,East,3.5,-,0.02,Rain,Light Rain,100,2013-08-13 18:54:00
3:54 PM,75.0,68.0,79,29.84,10.0,South,3.5,-,0.00,,Mostly Cloudy,190,2013-08-13 19:54:00
4:54 PM,79.0,68.0,69,29.82,10.0,Variable,3.5,-,N/A,,Partly Cloudy,0,2013-08-13 20:54:00
5:54 PM,82.9,68.0,60,29.83,10.0,WNW,9.2,-,N/A,,Scattered Clouds,300,2013-08-13 21:54:00
6:54 PM,79.0,63.0,58,29.83,10.0,West,6.9,-,N/A,,Mostly Cloudy,270,2013-08-13 22:54:00
7:54 PM,77.0,63.0,62,29.84,10.0,West,5.8,-,N/A,,Scattered Clouds,280,2013-08-13 23:54:00
8:54 PM,75.0,61.0,62,29.86,10.0,WNW,3.5,-,N/A,,Partly Cloudy,300,2013-08-14 00:54:00
9:54 PM,75.0,60.1,60,29.88,10.0,Variable,3.5,-,N/A,,Mostly Cloudy,0,2013-08-14 01:54:00
10:54 PM,71.1,62.1,73,29.89,10.0,NW,4.6,-,N/A,,Partly Cloudy,320,2013-08-14 02:54:00
11:54 PM,69.1,62.1,78,29.89,10.0,NW,9.2,-,N/A,,Partly Cloudy,320,2013-08-14 03:54:00